GW5899 Weather Reports


Display with metric or nautical units.
time (UTC)temp
F
wind
direction
speed
MPH
gust
MPH
rain 1hr
in
rain 24hr
in
rain mn
in
humidity
%
barometer
mb
20260504050011 53 218 2.0 2.0 0.00 0.00 0.00 54 1007.5
20260504045508 53 233 1.0 2.0 0.00 0.00 0.00 54 1007.5
20260504045003 54 229 3.0 3.0 0.00 0.00 0.00 52 1007.5
20260504044500 55 223 4.0 4.0 0.00 0.00 0.00 52 1007.7
20260504043957 55 223 4.0 6.0 0.00 0.00 0.00 51 1007.8
20260504043454 55 217 4.0 4.0 0.00 0.00 0.00 49 1007.5
20260504042952 55 234 5.0 7.0 0.00 0.00 0.00 50 1007.6
20260504042448 56 229 4.0 4.0 0.00 0.00 0.00 51 1007.7
20260504041945 56 223 6.0 8.0 0.00 0.00 0.00 49 1007.6
20260504041441 56 214 5.0 7.0 0.00 0.00 0.00 48 1007.6
20260504040937 55 213 5.0 6.0 0.00 0.00 0.00 50 1007.5
20260504040435 55 228 4.0 6.0 0.00 0.00 0.00 51 1007.6
20260504035931 55 224 2.0 3.0 0.00 0.00 0.00 51 1007.6
20260504035429 56 209 3.0 4.0 0.00 0.00 0.00 50 1007.5
20260504034925 56 230 6.0 8.0 0.00 0.00 0.00 48 1007.6
20260504034423 56 240 5.0 6.0 0.00 0.00 0.00 50 1007.5
20260504033920 56 232 7.0 8.0 0.00 0.00 0.00 48 1007.5
20260504033417 56 231 8.0 11.0 0.00 0.00 0.00 49 1007.6
20260504032914 55 220 5.0 6.0 0.00 0.00 0.00 51 1007.8
20260504032411 55 249 4.0 4.0 0.00 0.00 0.00 53 1007.6
20260504031908 55 234 5.0 6.0 0.00 0.00 0.00 51 1007.6
20260504031405 55 233 3.0 3.0 0.00 0.00 0.00 52 1007.6
20260504030901 55 228 4.0 4.0 0.00 0.00 0.00 52 1007.8
20260504030359 55 230 6.0 7.0 0.00 0.00 0.00 50 1007.6
20260504025854 55 240 4.0 6.0 0.00 0.00 0.00 52 1007.6
20260504025352 55 207 4.0 7.0 0.00 0.00 0.00 53 1007.6
20260504024848 55 213 5.0 7.0 0.00 0.00 0.00 52 1007.7
20260504024344 55 208 4.0 4.0 0.00 0.00 0.00 54 1007.8
20260504023842 55 234 3.0 3.0 0.00 0.00 0.00 55 1007.9
20260504023339 55 235 5.0 6.0 0.00 0.00 0.00 53 1008.0
20260504022834 55 248 4.0 4.0 0.00 0.00 0.00 54 1008.1
20260504022331 54 235 6.0 8.0 0.00 0.00 0.00 55 1008.0
20260504021827 54 220 4.0 6.0 0.00 0.00 0.00 58 1008.0
20260504021325 53 236 3.0 4.0 0.00 0.00 0.00 61 1008.1
20260504020822 53 226 4.0 4.0 0.00 0.00 0.00 62 1008.0
20260504020319 53 236 4.0 6.0 0.00 0.00 0.00 63 1008.0
20260504015815 52 232 2.0 3.0 0.00 0.00 0.00 67 1007.9
20260504015311 52 233 2.0 2.0 0.00 0.00 0.00 69 1008.0
20260504014807 52 242 4.0 4.0 0.00 0.00 0.00 69 1008.1
20260504014303 52 242 2.0 2.0 0.00 0.00 0.00 71 1008.0
20260504013801 51 229 3.0 3.0 0.00 0.00 0.00 72 1008.2
20260504013259 51 219 4.0 4.0 0.00 0.00 0.00 73 1008.1
20260504012755 50 240 2.0 2.0 0.00 0.00 0.00 79 1008.1
20260504012253 50 224 1.0 2.0 0.00 0.00 0.00 80 1008.3
20260504011750 50 199 3.0 3.0 0.00 0.00 0.00 79 1008.4
20260504011246 50 191 2.0 2.0 0.00 0.00 0.00 85 1008.6
20260504010742 50 242 0.0 0.0 0.00 0.00 0.00 84 1008.8
20260504010238 50 236 1.0 1.0 0.00 0.00 0.00 84 1008.7
20260504005735 50 233 1.0 2.0 0.00 0.00 0.00 83 1008.4
20260504005232 50 243 1.0 1.0 0.00 0.00 0.00 83 1008.6
20260504004730 49 238 1.0 1.0 0.00 0.00 0.00 83 1008.4
20260504004227 49 208 1.0 2.0 0.00 0.00 0.00 84 1008.5
20260504003723 50 237 1.0 1.0 0.00 0.00 0.00 84 1008.7
20260504003220 50 242 1.0 2.0 0.00 0.00 0.00 82 1008.9
20260504002717 50 266 2.0 2.0 0.00 0.00 0.00 80 1009.2
20260504002214 50 269 2.0 3.0 0.00 0.00 0.00 79 1008.9
20260504001712 51 244 1.0 1.0 0.00 0.00 0.00 75 1009.0
20260504001209 51 290 3.0 4.0 0.00 0.00 0.00 73 1009.0
20260504000705 51 224 2.0 3.0 0.00 0.00 0.00 71 1008.6
20260504000204 52 261 4.0 4.0 0.00 0.00 0.00 71 1008.5
20260503235700 51 252 4.0 6.0 0.00 0.00 0.00 71 1008.5
20260503235157 51 284 3.0 3.0 0.00 0.00 0.00 73 1008.6
20260503234655 51 315 4.0 8.0 0.00 0.00 0.00 73 1008.8
20260503234153 53 205 7.0 15.0 0.00 0.00 0.00 69 1008.7
20260503233649 53 241 6.0 8.0 0.00 0.00 0.00 63 1008.7
20260503233145 54 220 13.0 23.0 0.00 0.00 0.00 61 1008.6
20260503232642 55 229 3.0 6.0 0.00 0.00 0.00 55 1008.5
20260503232139 55 215 5.0 10.0 0.00 0.00 0.00 54 1008.3
20260503231638 55 244 2.0 3.0 0.00 0.00 0.00 52 1008.4
20260503231134 55 254 4.0 4.0 0.00 0.00 0.00 51 1008.3
20260503230631 55 231 4.0 4.0 0.00 0.00 0.00 51 1008.1
20260503230128 55 279 5.0 6.0 0.00 0.00 0.00 50 1008.1
20260503225625 56 246 4.0 6.0 0.00 0.00 0.00 48 1007.9
20260503225125 56 235 7.0 8.0 0.00 0.00 0.00 48 1008.0
20260503224622 56 229 9.0 13.0 0.00 0.00 0.00 47 1007.9
20260503224120 56 223 11.0 13.0 0.00 0.00 0.00 45 1008.0
20260503223618 57 239 10.0 15.0 0.00 0.00 0.00 44 1007.9
20260503223114 56 235 11.0 14.0 0.00 0.00 0.00 45 1007.7
20260503222612 55 236 2.0 2.0 0.00 0.00 0.00 45 1007.8
20260503222109 53 199 3.0 3.0 0.00 0.00 0.00 55 1007.9
20260503221607 53 235 1.0 1.0 0.00 0.00 0.00 56 1007.7
20260503221104 52 172 2.0 3.0 0.00 0.00 0.00 59 1007.8
20260503220601 52 261 1.0 1.0 0.00 0.00 0.00 58 1007.7
20260503220058 52 280 2.0 3.0 0.00 0.00 0.00 56 1008.3
20260503215555 51 300 2.0 2.0 0.00 0.00 0.00 55 1008.4
20260503215051 52 276 2.0 2.0 0.00 0.00 0.00 56 1008.5
20260503214550 53 273 1.0 1.0 0.00 0.00 0.00 52 1008.6
20260503214046 53 307 3.0 3.0 0.00 0.00 0.00 52 1008.7
20260503213545 55 304 4.0 6.0 0.00 0.00 0.00 51 1008.6
20260503213041 55 308 5.0 7.0 0.00 0.00 0.00 47 1008.3
20260503212538 56 290 2.0 3.0 0.00 0.00 0.00 47 1008.3
20260503212036 56 278 4.0 4.0 0.00 0.00 0.00 47 1008.2
20260503211533 56 273 2.0 3.0 0.00 0.00 0.00 45 1008.0
20260503211028 56 260 2.0 3.0 0.00 0.00 0.00 46 1007.8
20260503210525 57 272 3.0 3.0 0.00 0.00 0.00 44 1007.8
20260503210021 57 248 3.0 4.0 0.00 0.00 0.00 47 1007.9
20260503205518 57 287 3.0 3.0 0.00 0.00 0.00 44 1008.2
20260503205014 57 276 3.0 4.0 0.00 0.00 0.00 44 1008.1
20260503204511 58 265 3.0 3.0 0.00 0.00 0.00 44 1008.1
20260503204008 57 235 3.0 3.0 0.00 0.00 0.00 42 1008.2
20260503203505 57 318 5.0 6.0 0.00 0.00 0.00 45 1008.2
20260503203002 57 270 4.0 6.0 0.00 0.00 0.00 43 1008.2
20260503202500 57 290 3.0 3.0 0.00 0.00 0.00 45 1008.3
20260503201958 56 289 5.0 6.0 0.00 0.00 0.00 42 1008.3
20260503201455 57 274 2.0 2.0 0.00 0.00 0.00 48 1008.5
20260503200953 58 313 4.0 4.0 0.00 0.00 0.00 42 1008.5
20260503200449 57 324 5.0 7.0 0.00 0.00 0.00 41 1008.5
20260503195946 57 353 6.0 8.0 0.00 0.00 0.00 44 1008.6
20260503195443 57 287 4.0 6.0 0.00 0.00 0.00 44 1008.8
20260503194939 57 255 5.0 7.0 0.00 0.00 0.00 44 1008.6
20260503194437 57 314 4.0 6.0 0.00 0.00 0.00 45 1009.0
20260503193932 57 265 2.0 2.0 0.00 0.00 0.00 48 1009.0
20260503193427 57 286 2.0 3.0 0.00 0.00 0.00 46 1009.2
20260503192923 57 267 5.0 8.0 0.00 0.00 0.00 44 1009.6
20260503192420 56 273 7.0 9.0 0.00 0.00 0.00 44 1009.5
20260503191915 57 305 5.0 8.0 0.00 0.00 0.00 45 1009.6
20260503191414 55 355 6.0 8.0 0.00 0.00 0.00 47 1009.7
20260503190909 55 261 5.0 7.0 0.00 0.00 0.00 47 1009.9
20260503190407 54 248 3.0 3.0 0.00 0.00 0.00 54 1009.8
20260503185903 53 335 2.0 3.0 0.00 0.00 0.00 53 1009.9
20260503185400 53 249 2.0 2.0 0.00 0.00 0.00 54 1010.1
20260503184859 53 285 1.0 2.0 0.00 0.00 0.00 51 1010.4
20260503184356 53 315 2.0 2.0 0.00 0.00 0.00 54 1010.3
20260503183852 51 28 4.0 4.0 0.00 0.00 0.00 57 1010.6
20260503183349 50 281 2.0 3.0 0.00 0.00 0.00 58 1010.6
20260503182846 49 349 4.0 4.0 0.00 0.00 0.00 60 1010.6
20260503182345 49 299 2.0 2.0 0.00 0.00 0.00 57 1010.7
20260503181842 50 310 3.0 3.0 0.00 0.00 0.00 59 1010.5
20260503181339 50 328 4.0 4.0 0.00 0.00 0.00 59 1010.6
20260503180836 50 352 4.0 6.0 0.00 0.00 0.00 60 1010.6
20260503180334 50 267 3.0 4.0 0.00 0.00 0.00 56 1010.8
20260503175830 51 326 6.0 7.0 0.00 0.00 0.00 58 1010.9
20260503175328 51 340 6.0 7.0 0.00 0.00 0.00 57 1010.7
20260503174823 51 354 5.0 6.0 0.00 0.00 0.00 58 1010.8
20260503174322 52 284 4.0 4.0 0.00 0.00 0.00 54 1011.0
20260503173817 50 336 6.0 8.0 0.00 0.00 0.00 60 1011.0
20260503173313 50 348 6.0 8.0 0.00 0.00 0.00 57 1011.2
20260503172810 51 282 4.0 4.0 0.00 0.00 0.00 57 1011.0
20260503172308 51 296 3.0 3.0 0.00 0.00 0.00 59 1011.1
20260503171803 50 296 4.0 7.0 0.00 0.00 0.00 56 1011.2
20260503171301 52 302 4.0 4.0 0.00 0.00 0.00 54 1011.2
20260503170758 52 301 5.0 6.0 0.00 0.00 0.00 53 1011.1
20260503170254 53 289 7.0 9.0 0.00 0.00 0.00 49 1011.0
20260503160217 52 319 3.0 3.0 0.00 0.00 0.00 49 1011.6
20260503150647 50 334 5.0 6.0 0.00 0.00 0.00 50 1012.1
20260503150143 50 7 4.0 4.0 0.00 0.00 0.00 49 1012.2
20260503140107 49 284 3.0 4.0 0.00 0.00 0.00 48 1012.8
20260503131036 47 288 6.0 7.0 0.00 0.00 0.00 47 1013.3
20260503130533 47 281 5.0 6.0 0.00 0.00 0.00 49 1013.1
20260503110424 38 273 1.0 2.0 0.00 0.00 0.00 74 1013.0
20260503090321 36 235 1.0 1.0 0.00 0.00 0.00 81 1012.4
20260503081248 38 235 1.0 2.0 0.00 0.00 0.00 79 1012.8
20260503080744 38 243 2.0 2.0 0.00 0.00 0.00 79 1012.8
20260503080242 38 228 2.0 2.0 0.00 0.00 0.00 79 1012.7
20260503072718 38 230 2.0 2.0 0.00 0.00 0.00 79 1012.8
20260503072215 37 234 1.0 2.0 0.00 0.00 0.00 80 1012.9
20260503071711 37 238 0.0 0.0 0.00 0.00 0.00 81 1012.9
20260503071209 38 235 0.0 0.0 0.00 0.00 0.00 80 1012.7
20260503070705 38 237 0.0 0.0 0.00 0.00 0.00 79 1012.8
20260503070203 39 231 0.0 0.0 0.00 0.00 0.00 77 1012.8
20260503060127 41 241 0.0 1.0 0.00 0.00 0.00 74 1012.9
20260503055119 41 239 1.0 1.0 0.00 0.00 0.00 73 1012.9
20260503054615 41 218 3.0 3.0 0.00 0.00 0.00 71 1013.0
20260503054112 41 240 1.0 2.0 0.00 0.00 0.00 71 1013.2
20260503053610 41 241 2.0 2.0 0.00 0.00 0.00 72 1013.2
20260503053108 41 235 2.0 2.0 0.00 0.00 0.00 71 1013.1
20260503052604 41 245 2.0 2.0 0.00 0.00 0.00 71 1013.4
20260503052100 41 244 1.0 1.0 0.00 0.00 0.00 71 1013.3
20260503051556 41 237 1.0 1.0 0.00 0.00 0.00 70 1013.3
20260503051054 41 244 0.0 0.0 0.00 0.00 0.00 69 1013.3
20260503050549 41 246 0.0 1.0 0.00 0.00 0.00 68 1013.5
20260503050047 42 242 0.0 0.0 0.00 0.00 0.00 68 1013.4